This demonstration page uses our WeatherBlox Daily Observations layout. Learn more.

Left ArrowRight Arrow

41.86663, -103.66717

Hourly Observations for January 23, 2017

Temp ( °F °C ) Dew Point ( °F °C ) Humidity (%) Winds ( mph kmh ) Pressure ( in mb ) Visibility ( mi km ) Precip ( " mm )
12:53 am 00:53 Cloudy 27 -2.8 21 -6.1 78 78 Calm 29.80 1009 10 16 0.00 0.00
1:53 am 01:53 Partly Cloudy 24 -4.4 20 -6.7 84 84 Calm 29.78 1009 10 16 0.00 0.00
2:53 am 02:53 Cloudy 25 -3.9 21 -6.1 85 85 Calm 29.78 1008 10 16 0.00 0.00
3:53 am 03:53 Cloudy 27 -2.8 21 -6.1 78 78 E 5 7 29.75 1008 10 16 0.00 0.00
4:53 am 04:53 Cloudy 28 -2.2 21 -6.1 75 75 E 5 7 29.73 1007 10 16 0.00 0.00
5:53 am 05:53 Cloudy 28 -2.2 21 -6.1 75 75 Calm 29.72 1007 10 16 0.00 0.00
6:53 am 06:53 Cloudy 26 -3.3 21 -6.1 81 81 E 6 9 29.72 1006 10 16 0.00 0.00
7:53 am 07:53 Mostly Sunny 27 -2.8 21 -6.1 78 78 E 5 7 29.72 1006 10 16 0.00 0.00
8:53 am 08:53 Sunny 29 -1.7 24 -4.4 82 82 SW 3 6 29.73 1007 10 16 0.00 0.00
9:53 am 09:53 Sunny 34 1.1 24 -4.4 67 67 E 3 6 29.70 1006 10 16 0.00 0.00
10:53 am 10:53 Partly Cloudy 39 3.9 26 -3.3 60 60 Calm 29.68 1005 10 16 0.00 0.00
11:53 am 11:53 Mostly Cloudy 43 6.1 25 -3.9 49 49 E 3 6 29.61 1003 10 16 0.00 0.00
12:53 pm 12:53 Sunny 45 7.2 25 -3.9 46 46 SE 5 7 29.58 1002 10 16 0.00 0.00
1:53 pm 13:53 Cloudy 50 10 25 -3.9 38 38 NE 5 7 29.56 1001 10 16 0.00 0.00
2:53 pm 14:53 Mostly Cloudy 48 9 27 -3 43 43 N 6 9 29.50 999 10 16 0.00 0.00
3:53 pm 15:53 Mostly Sunny 43 6.1 26 -3.3 51 51 N 3 6 29.58 1002 10 16 0.00 0.00
4:53 pm 16:53 Sunny 37 2.8 27 -2.8 67 67 Calm 29.60 1003 10 16 0.00 0.00
5:53 pm 17:53 Cloudy 39 3.9 26 -3.3 60 60 Calm 29.61 1003 10 16 0.00 0.00
6:53 pm 18:53 Cloudy 37 2.8 28 -2.2 70 70 NNW 8 13 29.63 1003 10 16 0.00 0.00
7:53 pm 19:53 Mostly Cloudy 35 1.7 27 -2.8 72 72 NNE 8 13 29.63 1003 10 16 0.00 0.03
8:53 pm 20:53 Cloudy 33 0.6 27 -2.8 78 78 ENE 17 28 29.63 1004 10 16 0.00 0.00
9:53 pm 21:53 Cloudy 30 -1.1 26 -3.3 85 85 ENE 18 30 29.61 1003 10 16 0.00 0.00
10:53 pm 22:53 Cloudy 30 -1.1 26 -3.3 85 85 NE 16 26 29.60 1003 10 16 0.00 0.00
11:36 pm 23:36 Cloudy with Light Snow 28 -2 25 -4 86 86 NW 7 11 29.74 1007 7 11 0.00 0.00
11:42 pm 23:42 Cloudy with Light Snow 28 -2 25 -4 86 86 W 6 9 29.77 1008 2 2 0.00 0.00
11:53 pm 23:53 Cloudy with Snow 28 -2.2 25 -3.9 88 88 N 5 7 29.65 1004 1 1 0.01 0.25

Powered by AerisWeather